Location: Willingham
(52.3167°N, 0.0667°E)
Time: 22:32:41
(UTC+00:00)

Cosmos 1980 Rocket - Pass Details

Date: 19 May 2025
Orbit: 829 x 847 km, 71.0° (Epoch: 12 June)

Event Time Altitude Azimuth Distance (km) Brightness Sun altitude
Rises 22:27:52 0° 325° (NW) 3,384 7.0 -15.2°
Reaches altitude 10° 22:30:26 10° 318° (NW) 2,447 5.7 -15.3°
Maximum altitude 22:35:36 40° 251° (WSW) 1,216 3.0 -15.6°
Enters shadow 22:39:03 19° 193° (SSW) 1,863 3.5 -15.8°
